Location: Gandikunta
(16.3784°N, 80.8378°E)
Time: 16:32:47
(UTC+00:00)

Cosmos 1954 Rocket - Pass Details

Date: 19 May 2025
Orbit: 749 x 776 km, 74.0° (Epoch: 12 June)

Event Time Altitude Azimuth Distance (km) Brightness Sun altitude
Exits shadow 22:49:27 23° 208° (SSW) 1,583 5.2 -17.3°
Maximum altitude 22:52:39 64° 284° (WNW) 857 4.0 -16.7°
Drops below altitude 10° 22:57:53 10° 5° (N) 2,317 6.9 -15.5°
Sets 23:00:17 0° 9° (N) 3,242 7.8 -15.0°
